Volver al catálogo

ARIANE 5 R/B

ActivoSSO
NORAD 36125·ROCKET BODY·🇫🇷 France

Lanzado Dec 17, 2009 desde Guiana Space Centre

Loading…

Próximos Pases (próximas 24 horas)

TLE

ObsoletoSource: Mike McCants

Época: Aug 31, 2026, 22:08 UTC

1 36125U 09073B   26243.92283215 0.00000400  00000-0  52813-4 0    05
2 36125  98.0198 339.1810 0023072 295.6535  64.3464 14.79920846    05

Sigue ARIANE 5 R/B en tiempo real con AllMySat

Download on the App Store